NKS1000 KDTW-KEWR

Flight info

Callsign NKS1000
Flight time 1h 3m
Altitude 37000
Route PAVYL3 ESSBE DCT SLT FQM3
Aircraft A320/M-SDE3FGHIRWY/LB1

Departure

Time 2026-05-03 21:50
Airport Detroit Metropolitan Wayne County Airport (KDTW)

Arrival

Time 2026-05-03 22:53
Airport Newark Liberty International Airport (KEWR)
Time Latitude Longitude Altitude Speed Heading
2026-05-03 21:46 42.22756 -83.34990 647 ft 13 kts 30°
2026-05-03 21:46 42.22839 -83.34926 648 ft 15 kts 28°
2026-05-03 21:47 42.22919 -83.34869 647 ft 12 kts 27°
2026-05-03 21:47 42.23001 -83.34824 647 ft 10 kts
2026-05-03 21:47 42.23048 -83.34857 647 ft 7 kts 302°
2026-05-03 21:47 42.23056 -83.34879 647 ft 0 kts 296°
2026-05-03 21:48 42.23063 -83.34898 647 ft 4 kts 296°
2026-05-03 21:48 42.23080 -83.34945 647 ft 7 kts 297°
2026-05-03 21:48 42.23081 -83.35021 646 ft 9 kts 237°
2026-05-03 21:49 42.23047 -83.35056 646 ft 0 kts 207°
2026-05-03 21:49 42.23046 -83.35056 646 ft 1 kts 207°
2026-05-03 21:49 42.22918 -83.35151 646 ft 53 kts 210°
2026-05-03 21:49 42.22416 -83.35521 648 ft 109 kts 208°
2026-05-03 21:50 42.21617 -83.36109 648 ft 152 kts 208°
2026-05-03 21:50 42.20664 -83.36793 1219 ft 150 kts 210°
2026-05-03 21:50 42.19736 -83.37427 1954 ft 149 kts 211°
2026-05-03 21:50 42.18755 -83.38071 2342 ft 168 kts 204°
2026-05-03 21:51 42.17513 -83.38279 2639 ft 199 kts 180°
2026-05-03 21:51 42.16048 -83.37898 3025 ft 225 kts 175°
2026-05-03 21:51 42.14446 -83.37524 3625 ft 243 kts 177°
2026-05-03 21:51 42.12740 -83.37189 4496 ft 249 kts 178°
2026-05-03 21:52 42.11014 -83.36862 5416 ft 254 kts 178°
2026-05-03 21:52 42.09267 -83.36541 6293 ft 259 kts 179°
2026-05-03 21:52 42.07457 -83.36210 7013 ft 265 kts 178°
2026-05-03 21:52 42.05650 -83.35632 7906 ft 275 kts 162°
2026-05-03 21:53 42.04057 -83.34080 8672 ft 294 kts 135°
2026-05-03 21:53 42.03061 -83.31633 9499 ft 306 kts 108°
2026-05-03 21:53 42.02719 -83.28788 10290 ft 311 kts 98°
2026-05-03 21:53 42.02400 -83.25811 10586 ft 333 kts 101°
2026-05-03 21:54 42.01967 -83.22649 10820 ft 354 kts 102°
2026-05-03 21:54 42.01608 -83.19329 11335 ft 364 kts 94°
2026-05-03 21:54 42.01688 -83.15907 12008 ft 368 kts 81°
2026-05-03 21:54 42.02130 -83.12504 12707 ft 371 kts 78°
2026-05-03 21:55 42.02693 -83.09099 13383 ft 374 kts 70°
2026-05-03 21:55 42.03546 -83.05779 14034 ft 377 kts 68°
2026-05-03 21:55 42.04409 -83.02436 14639 ft 380 kts 68°
2026-05-03 21:55 42.05271 -82.99057 15272 ft 383 kts 69°
2026-05-03 21:56 42.06128 -82.95660 15888 ft 385 kts 69°
2026-05-03 21:56 42.06994 -82.92228 16507 ft 388 kts 68°
2026-05-03 21:56 42.07865 -82.88771 17123 ft 391 kts 68°
2026-05-03 21:56 42.08738 -82.85294 17736 ft 394 kts 68°
2026-05-03 21:57 42.09616 -82.81783 18330 ft 397 kts 68°
2026-05-03 21:57 42.10500 -82.78252 18868 ft 400 kts 68°
2026-05-03 21:57 42.11380 -82.74739 19395 ft 403 kts 68°
2026-05-03 21:57 42.12277 -82.71148 19933 ft 407 kts 68°
2026-05-03 21:58 42.13184 -82.67521 20451 ft 410 kts 68°
2026-05-03 21:58 42.13996 -82.63824 20947 ft 416 kts 75°
2026-05-03 21:58 42.14373 -82.59933 21430 ft 422 kts 85°
2026-05-03 21:58 42.14372 -82.55957 21907 ft 426 kts 88°
2026-05-03 21:59 42.14343 -82.51953 22377 ft 429 kts 88°
2026-05-03 21:59 42.14315 -82.47914 22840 ft 433 kts 88°
2026-05-03 21:59 42.14145 -82.43841 23293 ft 438 kts 96°
2026-05-03 21:59 42.13657 -82.39776 23713 ft 442 kts 98°
2026-05-03 22:00 42.13147 -82.35675 24094 ft 445 kts 98°
2026-05-03 22:00 42.12629 -82.31551 24471 ft 448 kts 98°
2026-05-03 22:00 42.12106 -82.27406 24859 ft 451 kts 98°
2026-05-03 22:00 42.11579 -82.23226 25246 ft 453 kts 98°
2026-05-03 22:01 42.11049 -82.19030 25635 ft 456 kts 98°
2026-05-03 22:01 42.10514 -82.14804 26022 ft 459 kts 98°
2026-05-03 22:01 42.09976 -82.10558 26399 ft 461 kts 98°
2026-05-03 22:01 42.09431 -82.06294 26769 ft 464 kts 98°
2026-05-03 22:02 42.08880 -82.02003 27136 ft 466 kts 98°
2026-05-03 22:02 42.08326 -81.97689 27510 ft 469 kts 98°
2026-05-03 22:02 42.07769 -81.93359 27882 ft 471 kts 98°
2026-05-03 22:02 42.07207 -81.88999 28253 ft 474 kts 98°
2026-05-03 22:03 42.06637 -81.84618 28622 ft 477 kts 98°
2026-05-03 22:03 42.06066 -81.80214 28979 ft 479 kts 98°
2026-05-03 22:03 42.05498 -81.75786 29348 ft 482 kts 98°
2026-05-03 22:03 42.04933 -81.71323 29707 ft 484 kts 98°
2026-05-03 22:04 42.04562 -81.68363 29939 ft 486 kts 98°
2026-05-03 22:04 42.03998 -81.63867 30251 ft 489 kts 98°
2026-05-03 22:04 42.03430 -81.59350 30526 ft 491 kts 98°
2026-05-03 22:04 42.02854 -81.54797 30811 ft 494 kts 98°
2026-05-03 22:05 42.02275 -81.50235 31127 ft 496 kts 98°
2026-05-03 22:05 42.01691 -81.45667 31552 ft 495 kts 98°
2026-05-03 22:05 42.01104 -81.41111 31954 ft 495 kts 98°
2026-05-03 22:05 42.00512 -81.36549 32358 ft 495 kts 98°
2026-05-03 22:06 41.99918 -81.31987 32780 ft 495 kts 98°
2026-05-03 22:06 41.99325 -81.27435 33199 ft 495 kts 98°
2026-05-03 22:06 41.98733 -81.22877 33617 ft 495 kts 98°
2026-05-03 22:06 41.98143 -81.18328 34021 ft 494 kts 98°
2026-05-03 22:07 41.97547 -81.13773 34364 ft 494 kts 99°
2026-05-03 22:07 41.96947 -81.09229 34683 ft 495 kts 99°
2026-05-03 22:07 41.96344 -81.04673 34994 ft 495 kts 99°
2026-05-03 22:07 41.95740 -81.00125 35302 ft 495 kts 99°
2026-05-03 22:08 41.95132 -80.95563 35606 ft 495 kts 99°
2026-05-03 22:08 41.94525 -80.91017 35902 ft 495 kts 99°
2026-05-03 22:08 41.93924 -80.86516 36194 ft 496 kts 100°
2026-05-03 22:08 41.93306 -80.81899 36477 ft 496 kts 100°
2026-05-03 22:09 41.92702 -80.77396 36749 ft 497 kts 100°
2026-05-03 22:09 41.92089 -80.72830 37016 ft 497 kts 100°
2026-05-03 22:09 41.91473 -80.68264 37286 ft 497 kts 100°
2026-05-03 22:10 41.90232 -80.59118 37811 ft 498 kts 101°
2026-05-03 22:10 41.89606 -80.54542 37942 ft 500 kts 101°
2026-05-03 22:10 41.88975 -80.49952 37958 ft 501 kts 101°
2026-05-03 22:11 41.87700 -80.40746 37964 ft 502 kts 101°
2026-05-03 22:11 41.86422 -80.31531 37960 ft 502 kts 101°
2026-05-03 22:12 41.85144 -80.22326 37971 ft 502 kts 101°
2026-05-03 22:12 41.83859 -80.13129 37980 ft 502 kts 101°
2026-05-03 22:13 41.82561 -80.03924 37985 ft 502 kts 101°
2026-05-03 22:13 41.81255 -79.94715 37993 ft 503 kts 101°
2026-05-03 22:14 41.79942 -79.85505 38000 ft 503 kts 101°
2026-05-03 22:14 41.78620 -79.76301 38004 ft 503 kts 101°
2026-05-03 22:15 41.77282 -79.67101 38010 ft 503 kts 101°
2026-05-03 22:15 41.75941 -79.57894 38011 ft 503 kts 101°
2026-05-03 22:16 41.74593 -79.48700 38012 ft 503 kts 101°
2026-05-03 22:16 41.73247 -79.39514 38012 ft 503 kts 102°
2026-05-03 22:17 41.71892 -79.30334 38010 ft 503 kts 102°
2026-05-03 22:17 41.70526 -79.21159 38009 ft 502 kts 102°
2026-05-03 22:18 41.69155 -79.11999 38006 ft 502 kts 102°
2026-05-03 22:18 41.67780 -79.02841 38007 ft 502 kts 102°
2026-05-03 22:19 41.66394 -78.93687 38002 ft 502 kts 102°
2026-05-03 22:19 41.64996 -78.84541 37989 ft 502 kts 102°
2026-05-03 22:20 41.63604 -78.75460 37995 ft 502 kts 102°
2026-05-03 22:20 41.62190 -78.66249 37993 ft 503 kts 102°
2026-05-03 22:21 41.60788 -78.57162 37993 ft 502 kts 102°
2026-05-03 22:21 41.59363 -78.48032 37997 ft 502 kts 102°
2026-05-03 22:22 41.57933 -78.38907 38006 ft 502 kts 102°
2026-05-03 22:22 41.56500 -78.29791 38013 ft 502 kts 102°
2026-05-03 22:23 41.55058 -78.20675 38013 ft 501 kts 102°
2026-05-03 22:23 41.53608 -78.11574 38013 ft 501 kts 102°
2026-05-03 22:24 41.52148 -78.02481 38005 ft 501 kts 103°
2026-05-03 22:24 41.50711 -77.93391 37990 ft 501 kts 102°
2026-05-03 22:25 41.49478 -77.84241 37999 ft 501 kts 100°
2026-05-03 22:25 41.48346 -77.75074 37994 ft 501 kts 100°
2026-05-03 22:26 41.47160 -77.65916 37987 ft 501 kts 101°
2026-05-03 22:26 41.45911 -77.56790 37994 ft 500 kts 101°
2026-05-03 22:27 41.44650 -77.47674 37986 ft 500 kts 101°
2026-05-03 22:27 41.43403 -77.38626 37987 ft 500 kts 101°
2026-05-03 22:28 41.42156 -77.29515 37975 ft 500 kts 101°
2026-05-03 22:28 41.40900 -77.20404 37960 ft 500 kts 101°
2026-05-03 22:29 41.39625 -77.11292 37956 ft 500 kts 101°
2026-05-03 22:29 41.38345 -77.02184 37955 ft 501 kts 101°
2026-05-03 22:30 41.37063 -76.93072 37951 ft 501 kts 101°
2026-05-03 22:30 41.35777 -76.83950 37960 ft 501 kts 102°
2026-05-03 22:31 41.34474 -76.74830 37954 ft 501 kts 102°
2026-05-03 22:31 41.33164 -76.65711 37768 ft 502 kts 102°
2026-05-03 22:31 41.32507 -76.61155 37509 ft 501 kts 102°
2026-05-03 22:32 41.31846 -76.56603 37249 ft 501 kts 102°
2026-05-03 22:32 41.31185 -76.52053 36986 ft 501 kts 102°
2026-05-03 22:32 41.30522 -76.47505 36745 ft 501 kts 102°
2026-05-03 22:32 41.29858 -76.42955 36488 ft 501 kts 102°
2026-05-03 22:33 41.29193 -76.38405 36127 ft 502 kts 102°
2026-05-03 22:33 41.28521 -76.33821 35278 ft 508 kts 102°
2026-05-03 22:33 41.27839 -76.29189 34430 ft 514 kts 101°
2026-05-03 22:33 41.27151 -76.24506 33645 ft 517 kts 101°
2026-05-03 22:34 41.26465 -76.19844 33093 ft 512 kts 101°
2026-05-03 22:34 41.25779 -76.15216 32487 ft 508 kts 101°
2026-05-03 22:34 41.25097 -76.10632 31891 ft 505 kts 101°
2026-05-03 22:34 41.24425 -76.06135 31303 ft 501 kts 101°
2026-05-03 22:35 41.23749 -76.01624 30825 ft 495 kts 101°
2026-05-03 22:35 41.23075 -75.97144 30314 ft 491 kts 101°
2026-05-03 22:35 41.22409 -75.92726 29798 ft 485 kts 100°
2026-05-03 22:35 41.21747 -75.88348 29162 ft 481 kts 100°
2026-05-03 22:36 41.21090 -75.84013 28547 ft 477 kts 100°
2026-05-03 22:36 41.20435 -75.79713 27934 ft 473 kts 100°
2026-05-03 22:36 41.19782 -75.75447 27313 ft 470 kts 100°
2026-05-03 22:36 41.19130 -75.71198 26707 ft 467 kts 100°
2026-05-03 22:37 41.18484 -75.66991 26118 ft 464 kts 100°
2026-05-03 22:37 41.17843 -75.62819 25629 ft 459 kts 100°
2026-05-03 22:37 41.17209 -75.58689 25120 ft 454 kts 100°
2026-05-03 22:37 41.16578 -75.54608 24631 ft 450 kts 100°
2026-05-03 22:38 41.15950 -75.50553 24145 ft 447 kts 100°
2026-05-03 22:38 41.15326 -75.46530 23644 ft 444 kts 100°
2026-05-03 22:38 41.14704 -75.42527 23113 ft 442 kts 100°
2026-05-03 22:38 41.14086 -75.38550 22582 ft 439 kts 99°
2026-05-03 22:39 41.13470 -75.34593 22063 ft 436 kts 99°
2026-05-03 22:39 41.12858 -75.30678 21542 ft 433 kts 99°
2026-05-03 22:39 41.12247 -75.26784 21011 ft 430 kts 99°
2026-05-03 22:39 41.11637 -75.22914 20502 ft 427 kts 99°
2026-05-03 22:40 41.11033 -75.19079 19968 ft 424 kts 99°
2026-05-03 22:40 41.10432 -75.15278 19546 ft 418 kts 99°
2026-05-03 22:40 41.09832 -75.11500 19039 ft 416 kts 99°
2026-05-03 22:40 41.09239 -75.07779 18592 ft 411 kts 99°
2026-05-03 22:41 41.08648 -75.04071 17826 ft 413 kts 105°
2026-05-03 22:41 41.08054 -75.00335 17216 ft 413 kts 105°
2026-05-03 22:41 41.07467 -74.96636 16738 ft 409 kts 105°
2026-05-03 22:41 41.06879 -74.92958 16204 ft 407 kts 105°
2026-05-03 22:42 41.06297 -74.89308 15744 ft 402 kts 105°
2026-05-03 22:42 41.05720 -74.85697 15226 ft 399 kts 105°
2026-05-03 22:42 41.05149 -74.82127 14719 ft 396 kts 105°
2026-05-03 22:42 41.04579 -74.78582 14357 ft 389 kts 105°
2026-05-03 22:43 41.04017 -74.75095 13835 ft 383 kts 105°
2026-05-03 22:43 41.03469 -74.71719 13048 ft 375 kts 105°
2026-05-03 22:43 41.02933 -74.68421 12583 ft 359 kts 105°
2026-05-03 22:43 41.02414 -74.65246 12126 ft 346 kts 105°
2026-05-03 22:44 41.01915 -74.62181 11682 ft 335 kts 105°
2026-05-03 22:44 41.01432 -74.59219 11253 ft 325 kts 105°
2026-05-03 22:44 41.00962 -74.56335 10834 ft 316 kts 105°
2026-05-03 22:44 41.00494 -74.53480 10421 ft 319 kts 104°
2026-05-03 22:45 41.00022 -74.50606 10164 ft 316 kts 104°
2026-05-03 22:45 40.99556 -74.47776 10067 ft 315 kts 104°
2026-05-03 22:45 40.99091 -74.44942 9874 ft 316 kts 104°
2026-05-03 22:45 40.98620 -74.42079 9435 ft 317 kts 104°
2026-05-03 22:46 40.98153 -74.39252 9137 ft 313 kts 104°
2026-05-03 22:46 40.97688 -74.36444 8769 ft 311 kts 104°
2026-05-03 22:46 40.97224 -74.33661 8439 ft 309 kts 104°
2026-05-03 22:46 40.96761 -74.30888 8086 ft 308 kts 104°
2026-05-03 22:47 40.96300 -74.28138 7782 ft 305 kts 104°
2026-05-03 22:47 40.95843 -74.25415 7493 ft 301 kts 103°
2026-05-03 22:47 40.95395 -74.22717 7209 ft 299 kts 103°
2026-05-03 22:47 40.94958 -74.20082 6924 ft 296 kts 103°
2026-05-03 22:48 40.94430 -74.17462 6603 ft 293 kts 113°
2026-05-03 22:48 40.93397 -74.15173 6288 ft 289 kts 132°
2026-05-03 22:48 40.91899 -74.13441 5939 ft 285 kts 150°
2026-05-03 22:48 40.90185 -74.12143 5575 ft 284 kts 153°
2026-05-03 22:49 40.88447 -74.10852 4834 ft 289 kts 152°
2026-05-03 22:49 40.86683 -74.09541 4016 ft 292 kts 152°
2026-05-03 22:49 40.84925 -74.08235 3514 ft 283 kts 152°
2026-05-03 22:49 40.83163 -74.07363 3334 ft 261 kts 171°
2026-05-03 22:50 40.81391 -74.07193 2963 ft 250 kts 180°
2026-05-03 22:50 40.79682 -74.07128 2635 ft 241 kts 181°
2026-05-03 22:50 40.78597 -74.07086 2435 ft 229 kts 180°
2026-05-03 22:50 40.77047 -74.07027 2149 ft 220 kts 181°
2026-05-03 22:51 40.75573 -74.07242 1871 ft 207 kts 201°
2026-05-03 22:51 40.74302 -74.08031 1618 ft 199 kts 211°
2026-05-03 22:51 40.73107 -74.08840 1369 ft 187 kts 211°
2026-05-03 22:51 40.71985 -74.09590 1110 ft 175 kts 210°
2026-05-03 22:52 40.71011 -74.10369 907 ft 154 kts 226°
2026-05-03 22:52 40.70407 -74.11426 706 ft 138 kts 250°
2026-05-03 22:52 40.70084 -74.12591 560 ft 134 kts 258°
2026-05-03 22:52 40.69987 -74.13776 405 ft 126 kts 275°
2026-05-03 22:53 40.70045 -74.14892 234 ft 122 kts 282°
2026-05-03 22:53 40.70145 -74.16016 40 ft 123 kts 278°
2026-05-03 22:53 40.70208 -74.16944 23 ft 66 kts 273°
2026-05-03 22:53 40.70222 -74.17236 23 ft 20 kts 274°
2026-05-03 22:54 40.70207 -74.17350 24 ft 11 kts 214°
2026-05-03 22:54 40.70147 -74.17358 23 ft 7 kts 184°
2026-05-03 22:54 40.70110 -74.17362 22 ft 6 kts 184°
2026-05-03 22:54 40.70062 -74.17367 22 ft 8 kts 185°
2026-05-03 22:55 40.69999 -74.17374 22 ft 10 kts 185°
2026-05-03 22:55 40.69935 -74.17353 22 ft 11 kts 128°
2026-05-03 22:55 40.69890 -74.17267 23 ft 12 kts 128°
2026-05-03 22:55 40.69834 -74.17187 22 ft 13 kts 137°
2026-05-03 22:56 40.69767 -74.17112 22 ft 13 kts 143°
2026-05-03 22:56 40.69687 -74.17049 22 ft 14 kts 155°
2026-05-03 22:56 40.69603 -74.17007 22 ft 13 kts 164°
2026-05-03 22:56 40.69518 -74.16980 23 ft 12 kts 173°
2026-05-03 22:57 40.69438 -74.17017 22 ft 14 kts 206°
2026-05-03 22:57 40.69356 -74.17070 22 ft 11 kts 206°
2026-05-03 22:57 40.69288 -74.17114 22 ft 11 kts 206°
2026-05-03 22:57 40.69209 -74.17164 22 ft 14 kts 206°
2026-05-03 22:58 40.69117 -74.17224 22 ft 15 kts 206°
2026-05-03 22:58 40.69031 -74.17278 22 ft 13 kts 205°
2026-05-03 22:58 40.68944 -74.17332 22 ft 15 kts 205°
2026-05-03 22:58 40.68850 -74.17390 22 ft 14 kts 206°
2026-05-03 22:59 40.68766 -74.17444 23 ft 15 kts 206°
2026-05-03 22:59 40.68679 -74.17501 23 ft 12 kts 206°
2026-05-03 22:59 40.68611 -74.17550 24 ft 10 kts 224°
2026-05-03 22:59 40.68618 -74.17623 23 ft 7 kts 297°
2026-05-03 23:00 40.68640 -74.17680 24 ft 8 kts 296°
2026-05-03 23:00 40.68662 -74.17759 22 ft 9 kts 287°
2026-05-03 23:00 40.68687 -74.17832 22 ft 9 kts 313°
2026-05-03 23:00 40.68746 -74.17849 22 ft 8 kts
2026-05-03 23:01 40.68797 -74.17842 22 ft 6 kts
2026-05-03 23:01 40.68810 -74.17825 22 ft 1 kts 71°
2026-05-03 23:01 40.68804 -74.17808 22 ft 3 kts 125°
2026-05-03 23:01 40.68795 -74.17786 22 ft 2 kts 113°
2026-05-03 23:02 40.68792 -74.17776 22 ft 1 kts 114°